{"data":{"norad_id":66366,"intl_designator":"2025-254U","name":"STARLINK-35845","alt_names":[],"object_type":"PAYLOAD","status":"ACTIVE","operator":null,"country":"US","launch_date":"2025-11-06","launch_site_code":"AFWTR","launch_vehicle":null,"mission":null,"orbit_class":"UNKNOWN","rcs_meters":null,"size_class":null,"mass_kg":null,"dimensions":null,"purposes":["comms"],"wikipedia_slug":null,"has_3d_model":false,"image_url":null,"decayed_at":null,"tle_current":{"epoch":"2026-05-25T05:29:47.948352Z","epoch_age_seconds":65330,"freshness":"FRESH","line1":"1 66366U 25254U   26145.22902718  .00086382  00000+0  28789-2 0  9996","line2":"2 66366  53.1586 236.9737 0003240 312.0719  48.0006 15.30376800 30695","mean_motion":15.303768,"eccentricity":0.000324,"inclination_deg":53.1586,"raan_deg":236.9737,"arg_perigee_deg":312.0719,"mean_anomaly_deg":48.0006,"bstar":0.0028789,"rev_number":3069,"period_min":94.094473988367,"perigee_km":472.46691226036,"apogee_km":476.90754235966,"semimajor_km":6852.82422731,"source":"CELESTRAK","updated_at":"2026-05-25T13:38:21.177799Z"}}}